Find Starlink 31446

NORAD ID: 59315 Int'l Des: 2024-056 Owner: SPXS Country: US Constellation: starlink operational
LEOCIRCULAR

Live-Position

3D-Globus wird geladen...

Über Starlink 31446

Beschreibung wird geladen...

Nächste Überflüge

Passes for default location (London). Set your location on the main map for personalized predictions.

Höhenverlauf

Loading altitude history...

Zweizeiliger Elementsatz

1 59315U 24056V 26133.33131244 -.00000390 00000-0 -46449-5 0 9992
2 59315 43.0022 225.3711 0001470 266.8157 93.2527 15.27576430121040
Epoch: 13. Mai 2026 • Age: 11 hours

Aktueller Status

Höhe 486.1 km
Geschwindigkeit 7.62 km/s
Subsatellitenpunkt -16.94°S, 49.92°E
Startdatum 24. März 2024
Alter 2.1 years
Typ internet

Technische Details

Klassifizierung Payload
Masse 730.00 kg
Trockenmasse 700.00 kg
Gesamtmasse 730.00 kg
Länge 0.30 m
Durchmesser 4.10 m
Spannweite 29.00 m
Form Box + pan
Hersteller SPXS
Bus-Typ Starlink V2M
Phasenstatus In Orbit
Besitzer/Staat SPXS/US

Most Searched